Regional Weather Roundup
Issued by NWS

Home | Current Version | Previous Version | Text Only | Print | Product List | Glossary On
Versions: 1 2 3 4 5 6 7 8 9 10 11 12 13 14 15 16 17 18 19 20 21 22 23 24 25 26 27 28 29 30 31 32 33 34 35 36 37 38 39 40 41 42 43 44 45 46 47 48 49 50
364
ASUS43 KDTX 281110
RWRMI
MICHIGAN HOURLY REGIONAL WEATHER ROUNDUP
NATIONAL WEATHER SERVICE DETROIT/PONTIAC MI
700 AM EDT TUE MAR 28 2017

NOTE: "FAIR" INDICATES FEW OR NO CLOUDS BELOW 12,000 FEET WITH NO
SIGNIFICANT WEATHER AND/OR OBSTRUCTION TO VISIBILITY.

MIZ047>049-052>055-059>063-066>070-074>076-081>083-281200-
SOUTHEAST LOWER MICHIGAN

CITY           SKY/WX    TMP DP  RH WIND       PRES   REMARKS
ADRIAN         CLOUDY    47  43  86 N9        29.96R
ANN ARBOR      CLOUDY    46  44  93 NW9       29.95R
BAD AXE        FOG       35  35 100 N8        30.00R VSB 1   WCI  29
CARO           CLOUDY    38  37  99 N7        29.99R FOG     WCI  32
DETROIT CITY   CLOUDY    41  39  93 N10       29.97R
DETROIT        CLOUDY    43  40  89 NE10      29.97R
FLINT          CLOUDY    40  38  93 NE8       29.99R WCI  34
GROSSE ILE     CLOUDY    42  39  90 N7        29.95R
HILLSDALE      CLOUDY    43  41  93 N7        29.94R
HOWELL         CLOUDY    40  38  93 NE8       29.98R

CITY           SKY/WX    TMP DP  RH WIND       PRES   REMARKS
JACKSON        CLOUDY    44  41  89 N9        29.96R
LAMBERTVILLE   CLOUDY    46  43  90 E3        29.95R
LANSING        CLOUDY    41  38  89 N7        29.99R FOG
LAPEER         CLOUDY    39  38  96 N6        29.99R WCI  35
MASON          CLOUDY    41  40  97 NE6       29.98R
MONROE         CLOUDY    44  42  94 NE6       29.94R
MT. CLEMENS    CLOUDY    40  40  99 N12       29.95R WCI  33
PONTIAC        CLOUDY    40  37  89 N8        29.96R WCI  34
PORT HOPE        N/A     35  34  96 N6        29.99R WCI  30
PORT HURON     CLOUDY    37  36  93 N6        29.97R WCI  33
TRI CITIES     CLOUDY    39  38  96 N6        30.01R WCI  35
MIDLAND        CLOUDY    39  37  90 N5        30.01R
TROY           CLOUDY    41  38  87 N6        29.99R
SAGINAW HB     CLOUDY    37  36  93 N8        30.00R WCI  31
$$
MIZ043>046-050>051-056>058-064>065-071>073-077>080-281200-
SOUTHWEST LOWER MICHIGAN

CITY           SKY/WX    TMP DP  RH WIND       PRES   REMARKS
BATTLE CREEK   CLOUDY    44  41  89 NE8       29.98R
BENTON HARBOR  CLOUDY    39  37  92 VRB5      30.01R
BIG RAPIDS     CLOUDY    37  35  94 N5        30.02R FOG     WCI  33
COLDWATER      CLOUDY    46  42  88 N9        29.96R
FREMONT        CLOUDY    38  36  94 N6        30.02R WCI  33
HOLLAND        CLOUDY    40  39  97 N7        30.01R FOG
GRAND RAPIDS   DRIZZLE   41  40  96 N10       30.00R
IONIA          CLOUDY    39  38  96 N7        30.00R WCI  34
KALAMAZOO      CLOUDY    44  39  82 N8        29.99R
LUDINGTON      CLOUDY    37  36  97 N3        30.04R
MARSHALL       CLOUDY    44  43  97 N5        29.97R
MOUNT PLEASANT CLOUDY    38  35  87 N3        30.01R
MUSKEGON       CLOUDY    40  36  86 N7        30.03R
SOUTH HAVEN    CLOUDY    39  38  97 N3        30.01R
$$
MIZ016>042-281200-
NORTHERN LOWER MICHIGAN

CITY           SKY/WX    TMP DP  RH WIND       PRES   REMARKS
ALPENA         CLOUDY    36  36 100 N5        30.05R WCI  32
BEAVER ISLAND  CLOUDY    33  33 100 NE3       30.08R FOG
BELLAIRE       CLOUDY    34  33  95 CALM      30.07R
CADILLAC       CLOUDY    34  33  96 N3        30.02R
CHARLEVOIX     CLOUDY    33  33 100 N7        30.10R FOG     WCI  27
FRANKFORT      CLOUDY    35  32  88 CALM      30.07R
GAYLORD        FOG       35  32  88 NE6       30.02R VSB 1/2 WCI  30
GRAYLING       CLOUDY    34  34 100 VRB3      30.04R FOG
HARBOR SPRINGS CLOUDY    34  34 100 N3        30.07R FOG
HOUGHTON LAKE  CLOUDY    36  34  92 N5        30.02R WCI  32
MANISTEE       CLOUDY    37  34  89 NE7       30.06R WCI  32
OSCODA         CLOUDY    38  37  97 N6        30.01R FOG     WCI  33
PELLSTON       CLOUDY    34  32  92 N6        30.07R FOG     WCI  29
ROGERS CITY    CLOUDY    35  34  95 NW3       30.07R
TRAVERSE CITY  CLOUDY    36  34  92 N5        30.05R WCI  32
$$
MIZ007>008-015-281200-
EASTERN UPPER MICHIGAN

CITY           SKY/WX    TMP DP  RH WIND       PRES   REMARKS
KINROSS        CLOUDY    33  32  96 N3        30.08R
MACKINAC ISLAN CLOUDY    33  33 100 NE8       30.07R WCI  26
NEWBERRY       FOG       31  31  98 N5        30.08R VSB 1/2 WCI  26
S. S. MARIE    CLOUDY    35  32  88 N5        30.07R WCI  31
MUNISING         N/A     31  30  96 CALM      30.10R
$$
MIZ004>006-011>014-085-281200-
CENTRAL UPPER MICHIGAN

CITY           SKY/WX    TMP DP  RH WIND       PRES   REMARKS
MANISTIQUE     FOG       30  30 100 N7        30.09R VSB 1/2 WCI  23
ESCANABA       CLEAR     26  25  96 CALM      30.10R
MENOMINEE        N/A    N/A N/A N/A MISG        N/A
SAWYER-GWINN   CLEAR     27  25  93 CALM      30.09R
$$
MIZ001>003-009>011-084-281200-
WESTERN UPPER MICHIGAN

CITY           SKY/WX    TMP DP  RH WIND       PRES   REMARKS
IRON MOUNTAIN  CLEAR     25  21  85 CALM      30.08R FOG
HOUGHTON       CLEAR     30  25  81 N6        30.07R WCI  24
COPPER HARBOR    N/A     29  28  96 W3        30.08R
IRONWOOD       PTCLDY    22  21  96 CALM      30.11R
$$

ABBREVIATIONS USED IN REMARKS
   TC - TEMPERATURE IN CELSIUS
  WCI - WIND CHILL INDEX
   HX - HEAT INDEX
  VSB - VISIBILITY





USA.gov is the U.S. government's official web portal to all federal, state and local government web resources and services.